Home   Weather   Sonthofen   Past weeks

Flag for Germany Past Weather in Sonthofen, Bavaria, Germany — Yesterday and Last 2 Weeks

Now
33 °F

Fog.


Feels Like: 33 °F
Forecast: 21 / 45 °F
Wind: 1 mph from Northeast

Location: Bregenz

Current Time: Apr 28, 2017 at 4:51:07 am

Latest Report: Apr 28, 2017 at 4:00 am


Visibility: N/A

Pressure: 29.92 "Hg (27.25 "Hg at 748m altitude)

Humidity: 96%

Dew Point: 32 °F

Location of SonthofenLocation

Past Weather in Sonthofen — Graph

°F

Sonthofen Temperature Yesterday

Maximum temperature yesterday: 41 °F (at 2:00 pm)
Minimum temperature yesterday: 36 °F (at 11:00 pm)
Average temperature yesterday: 39 °F

High & Low Weather Summary for the Past Weeks

 TemperatureHumidityPressure
High65 °F (Apr 13, 6:00 pm)97% (Apr 19, 3:00 am)30.58 "Hg (Apr 19, 3:00 am)
Low29 °F (Apr 20, 6:00 am)13% (Apr 21, 6:00 pm)29.74 "Hg (Apr 26, 1:00 am)
Average45 °F73%30.14 "Hg
* Reported Apr 13 3:00 am — Apr 28 3:00 am, Sonthofen, Weather by CustomWeather, © 2017

Note: Actual official high and low records may vary slightly from our data, if they occured in-between our weather recording intervals... More about our weather records

Advertising

Sonthofen Weather History for the Previous 24 Hours

Scroll right to see more
 ConditionsComfort  
Time TempWeatherWind HumidityBarometerVisibility
3:00 am
Fri, Apr 28
33 °FFog.No wind96%29.93 "HgN/A
2:00 am34 °FChilly.No wind95%29.93 "HgN/A
1:00 am34 °FFog.1 mph96%29.95 "HgN/A
12:00 am35 °FFog.1 mph95%29.96 "HgN/A
11:00 pm
Thu, Apr 27
36 °FChilly.1 mph94%29.97 "HgN/A
10:00 pm36 °FFog.1 mph94%29.98 "HgN/A
9:00 pm37 °FFog.3 mph92%29.97 "HgN/A
8:00 pm38 °FChilly.3 mph90%29.96 "HgN/A
7:00 pm40 °FFog.3 mph88%29.96 "HgN/A
6:00 pm40 °FFog.2 mph88%29.96 "HgN/A
5:00 pm41 °FQuite cool.2 mph86%29.98 "HgN/A
4:00 pm41 °FFog.2 mph84%29.98 "HgN/A
3:00 pm41 °FFog.1 mph85%29.99 "HgN/A
2:00 pm41 °FRain. Overcast.2 mph86%29.98 "Hg2 mi
1:00 pm41 °FFog.2 mph87%29.98 "HgN/A
12:00 pm40 °FFog.2 mph88%29.99 "HgN/A
11:00 am39 °FRain. Overcast.2 mph90%30.00 "Hg2 mi
10:00 am39 °FFog.No wind90%29.98 "HgN/A
9:00 am39 °FFog.No wind91%29.98 "HgN/A
8:00 am39 °FChilly.1 mph91%29.98 "HgN/A
7:00 am38 °FRain. Overcast.2 mph95%29.96 "Hg2 mi
6:00 am37 °FChilly.1 mph96%29.96 "HgN/A
5:00 am36 °FChilly.1 mph94%29.95 "HgN/A
4:00 am36 °FFog.1 mph92%29.96 "HgN/A
Weather by CustomWeather, © 2017

See weather overviewHow to use our weather pages